EHI
4 9 18 26 22 10 2 0 0 0 0 0 0 0 0 1 1 2 4 5 6 5 4 5 5 6 6 4 3 3 3 3 3 3 3 3 4 5 6 5 5 6 6 4 4 4 4 3 3
8 16 27 29 18 6 1 0 0 0 0 0 0 0 0 1 2 3 3 5 6 6 5 5 4 4 4 4 3 3 3 3 3 3 4 3 3 4 5 5 4 4 4 4 4 4 4 3 3
16 26 31 24 11 3 0 0 0 0 0 0 0 0 1 1 2 3 3 5 7 8 7 5 4 3 3 3 3 3 3 3 3 4 5 4 4 4 4 4 3 3 4 3 4 4 4 3 3
24 28 25 13 4 1 0 0 0 0 0 1 1 1 1 1 2 3 3 4 7 8 7 6 4 3 3 3 3 3 3 3 4 5 6 6 5 4 3 3 3 4 4 4 3 4 3 3 3
23 21 14 5 0 0 0 0 0 0 1 2 2 3 2 2 2 3 3 4 5 6 7 6 5 4 3 3 3 3 3 4 5 6 6 6 4 3 3 3 3 3 4 3 3 4 3 3 3
16 12 6 1 0 0 0 0 0 0 1 2 3 3 3 2 3 3 3 3 4 6 7 6 5 4 4 3 3 3 3 4 6 6 6 6 5 4 4 3 3 3 3 3 4 4 4 3 3
12 8 3 0 0 0 0 0 0 0 0 1 3 4 4 3 3 4 3 4 5 6 7 5 4 5 6 4 3 3 3 5 6 7 7 7 7 7 6 5 4 5 5 4 4 5 4 2 1
8 6 2 0 0 0 0 0 0 0 0 1 3 3 4 3 4 4 4 4 4 5 6 5 5 7 8 5 4 5 6 7 8 10 10 11 11 10 8 6 7 8 8 6 5 5 5 4 5
5 3 1 0 0 0 0 0 0 0 1 2 3 3 4 4 4 4 4 4 4 4 4 4 5 7 7 6 5 8 10 10 10 11 13 13 11 9 7 7 10 12 10 8 8 9 9 10 12
2 1 1 0 0 0 0 0 0 0 1 3 4 4 5 5 4 3 3 4 4 3 3 3 5 6 6 5 6 8 11 12 11 10 11 12 10 7 6 9 13 13 11 9 10 13 13 12 11
1 2 2 1 0 0 0 0 0 0 1 3 4 4 4 5 4 3 3 3 3 3 3 3 5 7 7 6 6 7 10 12 11 9 10 10 11 9 9 13 15 13 13 12 12 12 11 8 7
2 3 2 1 0 0 0 0 0 0 1 3 5 4 4 5 4 3 3 3 3 3 3 4 5 8 9 9 7 7 8 9 9 11 11 10 12 12 12 15 14 12 13 14 12 9 7 6 5
2 3 2 1 0 0 0 0 0 0 1 3 5 5 4 4 4 3 3 4 3 3 4 4 6 9 11 12 11 9 7 7 9 12 13 11 11 12 13 15 14 12 13 15 13 9 7 6 7
1 2 2 1 0 0 0 0 0 0 1 3 4 5 5 4 4 3 4 5 4 3 4 5 7 10 11 12 12 10 7 8 10 13 13 12 11 12 14 15 15 13 13 16 16 12 9 8 8
2 2 2 2 1 0 0 0 0 0 1 2 4 5 6 5 4 4 6 7 5 4 5 6 7 9 9 9 10 8 6 7 10 12 12 12 13 13 14 14 13 12 13 17 18 13 11 9 8
3 3 2 2 1 0 1 1 0 0 2 4 5 6 7 7 5 5 7 8 8 8 10 9 7 8 9 10 9 8 7 8 8 9 11 13 14 13 14 13 12 11 13 15 14 13 12 11 10
4 3 3 2 1 1 2 2 2 2 3 6 8 8 9 8 8 8 8 9 11 15 18 15 12 12 13 12 11 10 9 9 9 9 11 14 14 13 13 13 12 12 15 14 12 13 15 15 15
2 3 3 2 1 1 2 3 3 3 4 7 9 10 11 12 12 11 10 11 14 20 24 22 20 21 19 15 12 11 10 11 13 14 16 18 17 14 14 14 12 13 17 16 13 14 16 17 18
1 2 3 2 1 1 3 3 3 4 5 6 9 10 12 15 17 15 13 13 17 25 30 30 29 29 26 19 15 12 11 13 15 19 22 23 20 16 15 16 16 16 18 18 16 15 14 15 15
1 2 3 2 2 2 2 3 4 4 4 5 7 9 12 17 22 22 19 18 24 33 36 34 34 34 29 23 18 16 17 18 19 22 25 24 20 18 16 18 18 17 18 19 18 16 14 13 12
1 1 2 2 2 2 2 3 4 3 4 4 5 8 13 19 25 29 28 26 31 38 39 37 37 36 31 27 22 19 21 22 21 22 24 24 21 18 18 18 19 17 15 17 17 16 15 14 12
0 0 0 1 2 2 1 2 3 4 5 5 5 7 12 20 26 32 35 33 35 39 43 45 45 40 35 33 28 23 21 20 19 20 23 24 22 18 16 17 19 17 13 13 13 13 14 14 12
0 0 0 0 1 1 1 0 2 6 9 8 5 6 10 18 27 34 39 37 34 37 45 53 55 49 43 38 34 30 24 20 18 19 23 25 22 17 15 17 19 18 14 12 11 11 13 13 12
0 0 1 1 1 1 1 1 3 7 9 9 8 6 9 17 27 37 43 42 36 36 45 55 60 58 51 45 40 35 31 26 22 19 21 23 22 19 18 20 21 20 16 15 15 15 16 16 15
0 1 2 3 3 2 2 2 4 6 7 8 8 8 9 14 26 39 49 50 44 41 48 58 65 64 58 51 44 39 36 31 26 21 19 21 21 20 21 22 24 23 21 20 21 21 20 19 18
0 1 2 2 2 2 2 2 3 4 4 5 6 7 8 11 22 37 49 52 49 47 54 63 68 65 58 54 48 42 38 33 28 23 21 21 20 20 23 25 25 26 25 24 24 24 23 21 21
0 0 1 1 1 1 1 1 2 2 3 2 2 6 8 11 19 31 43 49 47 49 56 65 68 63 57 54 49 43 38 33 30 27 26 24 21 20 24 27 27 27 27 27 26 25 23 22 22
0 0 1 2 2 1 1 1 2 3 2 1 1 5 8 12 18 28 39 45 46 48 56 64 66 61 56 54 49 44 40 36 33 31 30 29 26 23 24 27 27 26 27 27 28 26 23 23 23
0 0 1 2 3 2 1 1 2 3 3 2 3 5 10 14 20 29 38 45 48 49 56 63 62 57 55 54 52 48 44 42 38 36 34 34 31 28 27 28 27 25 26 28 28 26 25 25 25
0 0 1 2 3 2 1 0 1 3 3 3 4 7 11 17 24 32 40 47 50 51 56 61 59 55 53 55 56 52 48 46 43 41 39 37 35 33 31 30 27 25 26 29 29 28 28 28 27
Wind_Speed
9 10 9 5 4 2 6 10 10 10 11 11 12 12 15 15 11 9 6 10 13 13 13 13 13 12 12 12 11 11 11 11 11 10 10 10 10 9 9 9 8 9 9 8 8 8 7 6 5
9 10 7 4 3 2 8 10 11 11 9 9 12 13 15 14 12 10 8 10 13 13 12 12 13 12 12 11 11 10 10 10 10 10 10 10 10 9 8 8 8 8 8 8 7 7 7 6 5
11 11 6 4 2 6 9 9 10 10 10 10 12 13 11 10 10 8 9 11 13 14 13 13 13 12 12 11 10 10 10 10 10 9 9 9 9 9 8 8 8 8 7 7 7 7 6 6 5
7 6 4 2 6 9 9 9 10 11 11 11 11 11 11 10 8 9 11 12 13 14 13 13 13 12 11 11 11 10 10 9 9 9 9 9 9 9 9 9 8 9 8 7 7 6 5 5 4
7 4 3 2 8 11 11 11 11 11 11 12 13 13 12 10 11 11 10 11 12 13 13 13 12 12 11 11 10 10 10 9 9 9 9 9 9 9 10 9 9 9 8 7 7 6 5 4 3
3 3 3 5 9 11 11 10 11 12 11 12 12 12 10 9 10 9 9 10 10 12 12 12 12 12 12 11 10 10 10 9 9 8 9 8 8 8 9 9 9 8 7 6 6 6 5 4 3
3 2 2 6 8 10 10 10 11 11 10 10 11 11 9 8 8 9 9 10 9 11 12 11 11 11 11 11 10 10 9 8 8 8 8 8 8 8 8 8 8 7 6 6 5 5 4 3 3
3 2 3 6 8 10 9 10 11 11 9 9 9 9 10 9 8 9 9 9 9 9 10 10 10 10 10 10 10 10 9 8 7 7 7 8 8 8 8 8 7 7 6 5 4 4 3 3 3
3 1 4 7 8 8 8 10 10 11 11 12 12 13 13 12 10 9 8 8 7 8 7 8 9 8 8 10 10 9 8 7 6 6 8 7 4 6 6 7 8 8 6 5 4 5 5 4 5
1 2 6 7 8 8 8 8 8 10 12 13 14 14 14 11 10 9 8 8 7 7 7 7 8 6 6 6 7 5 6 5 3 3 4 3 2 3 6 8 9 8 7 6 6 6 6 6 4
3 5 6 8 9 8 9 9 8 10 11 11 12 13 12 11 9 8 8 8 7 6 6 7 7 5 5 4 4 3 3 3 4 3 3 2 2 3 4 4 5 5 7 5 5 5 4 3 2
4 5 6 7 8 8 10 10 11 12 12 13 12 12 11 10 8 7 8 8 7 5 6 7 7 6 4 3 2 3 3 3 3 3 2 2 1 1 1 1 2 2 2 2 2 2 3 3 3
3 5 6 7 7 9 10 10 11 11 13 13 12 12 11 10 9 8 8 8 7 6 6 7 6 5 4 3 1 2 2 3 3 3 2 1 1 2 2 1 0 1 1 2 1 0 0 1 0
2 4 4 6 8 9 9 6 10 10 12 12 11 10 10 9 8 8 8 8 7 6 6 7 7 6 4 2 1 1 2 2 3 2 2 1 1 2 2 1 1 1 1 0 1 1 1 0 1
0 1 2 4 7 9 8 6 9 10 11 11 10 9 10 9 8 8 7 7 7 6 6 6 7 6 4 3 1 2 2 3 3 3 2 2 2 2 1 1 1 1 1 1 1 0 0 1 1
3 2 1 3 4 8 7 6 8 10 10 11 11 10 9 8 9 9 9 7 7 7 6 4 5 7 4 2 1 1 1 2 2 2 2 2 1 1 1 1 0 0 1 0 0 1 1 0 0
4 3 4 4 3 5 6 7 9 10 11 11 10 10 10 9 9 9 10 9 8 7 6 5 4 5 5 3 2 1 1 1 1 1 2 2 1 1 0 1 1 1 1 0 1 1 1 0 0
3 1 2 2 5 4 5 7 10 10 10 11 11 11 10 10 9 9 10 10 9 8 7 6 5 4 3 3 2 1 1 1 1 2 2 1 0 1 1 1 1 1 0 1 1 1 1 1 1
4 2 3 2 2 2 3 6 9 10 10 10 11 11 11 11 11 10 10 10 10 8 7 6 5 4 2 2 2 2 2 2 1 2 3 2 0 1 1 1 1 0 0 0 1 1 2 1 1
6 5 5 3 3 2 2 4 7 8 9 10 10 11 11 11 12 11 10 10 10 9 8 7 6 6 4 3 2 2 2 2 2 1 3 2 1 0 1 1 1 0 0 0 1 1 2 2 1
5 5 4 2 2 2 2 2 6 8 9 10 11 11 12 13 12 12 12 11 11 10 9 7 6 6 4 4 2 1 1 1 1 2 2 1 1 1 0 1 1 0 0 0 1 1 2 2 2
5 5 6 5 4 4 4 2 5 10 9 10 10 11 12 13 13 13 13 11 11 11 10 8 7 6 5 4 3 3 3 2 2 2 2 2 2 1 1 1 0 1 1 0 1 1 2 2 2
5 5 7 7 5 6 3 4 5 9 9 9 9 10 11 13 14 14 13 12 11 12 10 9 7 6 5 4 4 3 2 2 1 2 2 2 3 2 1 1 1 0 0 0 1 1 1 1 2
6 6 7 7 4 5 6 4 3 6 8 8 9 8 9 12 13 13 13 12 10 11 10 10 8 7 6 5 4 3 2 2 1 2 2 2 2 2 2 2 2 1 1 1 1 1 1 1 2
7 5 3 4 3 4 5 3 2 5 7 7 8 9 9 11 12 12 13 12 10 10 10 10 9 8 7 6 5 4 4 3 3 3 2 2 2 2 2 2 2 2 1 1 1 1 1 1 2
6 7 5 4 2 2 3 2 4 5 7 8 9 9 8 9 11 12 12 12 10 10 9 10 10 8 8 6 5 4 4 4 3 3 2 2 1 2 3 3 2 2 2 2 1 2 2 1 2
6 7 7 7 6 2 1 2 4 6 6 7 7 9 9 9 10 11 12 11 10 10 10 10 10 9 8 7 6 5 4 3 3 3 3 2 2 2 3 3 3 3 2 2 2 1 2 2 2
7 8 5 5 4 3 4 1 1 4 4 5 5 6 7 8 10 10 10 10 9 8 8 9 9 8 7 7 7 6 5 5 4 3 3 2 1 1 1 2 3 2 2 2 2 2 2 2 2
8 8 6 5 4 3 3 1 2 2 4 3 3 5 5 6 8 9 9 9 9 8 8 8 8 6 6 6 5 4 5 4 4 3 3 3 2 2 2 2 2 2 3 2 2 3 2 3 3
9 8 8 5 4 4 3 3 3 3 5 5 4 4 3 4 7 8 8 8 8 8 8 7 7 7 6 5 5 4 3 4 3 3 3 3 3 3 3 3 3 3 3 3 3 4 3 3 3
Wind_Direction
195 211 216 237 253 248 46 57 57 57 58 52 53 61 62 52 58 85 102 102 104 105 109 104 100 100 98 96 95 96 96 98 99 103 107 109 109 111 112 114 113 115 113 111 109 107 103 100 98
224 221 225 243 261 46 58 57 62 61 64 64 63 65 72 64 73 96 101 98 107 106 105 102 103 100 99 99 97 98 100 100 101 105 109 112 113 116 118 119 115 115 113 113 112 109 105 103 103
249 244 253 245 6 52 62 62 71 75 68 69 72 59 55 71 76 94 108 106 101 101 102 105 107 104 102 100 99 99 101 102 103 104 107 109 111 114 115 116 117 117 116 116 114 110 109 108 108
245 239 243 279 46 65 67 74 75 73 68 66 72 73 66 67 87 105 110 106 108 111 109 110 111 109 107 103 102 102 102 104 105 104 106 108 110 112 111 112 116 118 116 114 115 114 116 115 119
239 278 255 52 58 67 64 66 71 67 68 73 79 89 87 87 100 105 106 110 112 111 113 118 118 115 112 108 107 106 107 109 112 110 108 108 107 108 111 110 112 113 111 111 111 115 120 123 127
263 278 302 63 64 64 68 68 74 74 78 83 87 90 94 109 113 115 114 109 112 114 116 121 124 120 118 116 114 112 113 113 114 115 114 116 115 115 116 115 115 113 112 112 113 120 123 126 137
260 292 359 63 70 68 65 66 68 69 68 75 91 95 110 116 118 120 115 115 116 121 124 132 134 131 127 124 120 119 119 120 122 129 130 131 131 129 127 125 124 122 121 120 118 124 131 148 174
224 279 29 71 69 69 68 73 78 79 75 80 91 100 120 125 125 124 119 113 111 115 123 134 138 139 142 136 132 130 132 136 140 143 146 149 150 149 146 143 139 138 137 138 139 144 161 180 209
247 291 53 66 76 80 73 80 82 89 86 78 82 100 116 124 123 122 120 114 107 109 120 129 128 137 141 139 136 146 146 149 154 155 162 171 176 164 157 144 148 153 158 163 172 182 193 208 225
158 79 69 71 81 92 87 83 93 90 87 88 93 104 117 126 129 128 127 121 119 124 129 123 119 123 126 125 136 153 149 151 158 146 163 176 171 146 140 149 160 165 175 185 200 205 213 222 217
72 73 68 73 78 91 90 84 84 93 93 98 110 118 125 127 127 128 124 121 120 123 121 114 113 110 108 112 133 132 136 147 147 155 155 138 131 138 138 151 161 174 186 198 191 206 223 224 224
93 85 83 86 91 90 87 84 77 81 96 108 114 122 125 125 123 122 118 118 118 118 115 107 108 100 93 86 100 132 138 142 127 138 135 130 129 111 116 134 152 174 183 177 190 208 221 214 215
94 96 100 95 94 83 79 82 87 92 103 110 118 121 125 130 130 124 120 121 123 129 118 103 103 97 87 72 81 114 115 121 126 127 118 117 132 123 110 94 110 183 165 172 201 212 312 326 339
65 100 106 113 106 95 92 96 103 107 112 117 121 125 129 125 126 127 126 128 126 123 118 117 121 114 113 119 112 108 116 117 113 114 113 122 114 99 109 141 210 234 208 187 163 153 216 262 53
104 122 123 140 131 124 117 109 116 130 131 131 131 129 131 133 136 136 135 134 134 130 123 132 135 124 129 133 163 126 135 127 125 133 145 162 128 120 128 147 203 220 257 223 171 224 255 186 141
230 228 181 175 152 137 136 124 137 144 141 138 139 140 140 143 147 146 142 140 137 136 131 138 130 130 128 113 74 72 80 100 129 148 145 141 139 155 159 159 124 138 270 283 212 209 247 72 88
263 250 215 170 147 146 144 136 154 156 150 147 148 149 150 153 154 151 149 148 141 134 131 132 123 130 136 137 143 142 108 107 131 119 122 141 155 135 133 109 125 226 216 310 309 29 334 322 255
260 259 276 188 157 162 143 145 158 158 161 156 154 155 156 158 157 155 151 146 144 139 136 140 138 132 148 151 156 155 139 161 151 128 118 124 145 97 50 166 155 266 88 33 356 336 292 254 260
272 260 247 244 149 172 161 154 159 161 170 159 157 160 161 158 154 153 154 153 149 145 145 150 150 148 164 157 165 171 167 178 158 153 125 135 115 97 95 14 142 171 105 79 318 300 287 268 233
256 250 248 215 169 195 195 173 157 168 170 165 168 164 160 154 151 155 160 160 156 153 155 156 161 162 174 162 174 175 172 179 157 126 123 131 120 86 145 104 292 122 131 95 307 299 297 301 290
256 270 273 287 298 252 201 227 164 181 176 170 172 170 166 163 160 161 165 166 163 160 165 164 161 161 175 168 179 175 150 189 142 135 129 146 146 123 45 109 308 329 218 177 240 298 299 294 302
268 281 284 275 255 247 194 243 204 180 178 182 174 172 172 165 162 163 166 170 166 164 163 155 157 161 169 177 179 185 179 184 155 149 147 159 156 171 159 147 174 321 356 11 279 90 300 301 306
283 295 289 285 278 276 212 229 215 174 176 177 171 175 169 164 162 164 165 168 169 165 163 157 155 159 166 179 184 192 172 181 160 159 166 170 163 165 163 170 186 229 330 344 323 4 324 325 318
279 279 294 290 263 272 254 239 207 162 164 166 162 168 163 158 157 158 157 158 163 161 160 157 155 159 164 176 175 172 183 191 184 183 179 185 165 165 180 179 194 200 208 241 246 274 274 297 314
268 274 276 269 230 240 240 223 159 131 143 147 153 158 153 152 153 153 152 158 163 161 158 154 155 162 168 174 176 175 190 200 204 211 205 206 182 166 183 182 177 186 205 228 236 228 250 259 283
262 259 257 276 275 245 226 159 136 138 135 140 146 146 145 151 151 152 154 158 162 162 158 154 157 167 174 177 180 184 195 206 204 213 215 202 196 176 168 168 179 192 216 235 228 245 245 242 267
264 268 279 284 285 290 259 105 136 143 128 128 136 141 148 155 150 151 156 158 164 165 161 158 158 167 176 178 179 187 194 206 212 204 206 206 205 203 169 173 183 191 203 232 242 237 267 260 262
251 275 294 292 299 301 296 261 177 134 119 126 132 140 146 150 150 151 153 157 160 161 161 160 157 166 173 177 188 185 190 198 207 210 189 190 221 241 187 187 188 196 209 221 243 238 249 254 251
231 245 260 283 292 279 277 295 111 125 102 95 104 121 143 153 144 146 148 152 154 158 162 157 152 165 177 180 179 182 182 191 200 200 197 192 205 211 216 209 208 212 217 218 234 243 241 251 258
255 246 248 253 263 268 270 232 180 135 111 102 95 116 144 147 131 137 142 145 154 160 161 158 163 172 182 179 173 182 183 184 199 202 194 193 194 210 210 211 218 228 223 225 233 251 248 249 257